Location: Windsor
(43.2292°N, 89.3015°W)
Time: 04:55:59
(UTC+00:00)

BEESAT - Pass Details

Date: 01 July 2022
Orbit: 700 x 706 km, 98.6° (Epoch: 07 August)

Event Time Altitude Azimuth Distance (km) Brightness Sun altitude
Rises 02:07:18 0° 17° (NNE) 3,103 ? -4.7°
Reaches altitude 10° 02:09:36 10° 21° (NNE) 2,181 ? -5.0°
Maximum altitude 02:14:19 59° 101° (ESE) 815 ? -5.7°
Drops below altitude 10° 02:19:00 10° 181° (S) 2,168 ? -6.3°
Sets 02:21:17 0° 185° (S) 3,083 ? -6.7°
